Wind_Speed
5 3 5 9 7 7 5 2 2 2 9 6 5 5 2 9 6 6 9 16 17 16 14 14 15 17 21 22 23 23 22 23 25 26 27 27 28 27 27 26 25 24 21 20
3 5 7 12 10 7 7 6 4 6 6 6 10 9 9 6 9 10 10 9 10 11 13 16 17 17 20 22 26 27 29 29 32 31 29 29 29 30 28 29 29 27 26 23
6 2 14 8 12 13 9 9 5 1 6 7 8 8 5 8 13 10 14 14 12 15 15 15 17 20 20 24 26 26 27 28 30 32 30 29 30 31 31 32 31 28 26 26
6 4 12 12 15 15 11 13 8 6 6 2 5 4 7 6 12 11 17 15 21 23 21 18 18 13 9 11 17 20 24 27 29 29 31 32 33 33 34 33 30 30 29 27
5 6 7 13 17 16 3 10 12 6 4 6 5 1 5 8 5 6 16 18 17 15 13 15 12 13 18 20 23 26 29 29 30 29 30 31 32 31 28 26 32 32 28 25
2 3 5 3 5 10 9 10 12 7 3 3 8 6 4 5 4 5 4 5 3 2 6 9 11 11 9 10 14 16 18 22 23 25 28 31 32 31 30 31 32 32 28 25
3 3 2 3 8 10 13 10 3 2 1 4 1 6 9 9 6 3 5 8 6 4 6 7 6 8 10 13 15 17 17 18 19 21 24 28 29 29 27 30 31 30 27 24
7 3 8 4 1 7 7 9 3 4 4 4 4 5 4 3 3 4 6 5 6 5 3 5 7 9 12 13 15 16 17 19 20 21 22 22 25 27 28 31 30 28 26 24
10 4 3 8 2 6 4 4 3 5 1 3 4 5 6 7 4 2 6 5 3 6 6 9 12 16 19 20 21 20 19 19 18 19 21 21 22 23 25 27 28 27 26 26
6 5 6 5 1 3 3 6 4 2 3 3 3 3 4 1 1 4 10 16 12 8 10 13 16 18 19 22 23 24 24 23 21 20 20 19 20 21 22 25 26 27 28 28
3 5 4 5 6 9 3 4 2 5 3 4 1 1 3 6 8 9 14 12 10 8 8 7 11 21 24 24 22 20 21 22 22 21 19 18 19 20 23 25 27 28 28 28
1 4 6 4 3 4 6 5 4 3 4 3 3 3 4 7 13 13 9 12 13 11 7 12 18 24 25 29 29 25 22 22 24 24 23 22 21 23 25 27 28 29 30 30
2 1 6 3 3 2 2 5 6 2 2 3 4 2 3 4 10 9 8 6 8 12 13 19 25 26 25 24 27 29 29 29 29 32 30 27 26 28 30 31 31 32 32 33
4 2 3 3 4 2 5 8 7 5 3 2 5 4 4 4 7 14 16 18 19 19 19 18 19 22 26 28 26 27 30 32 33 33 34 34 31 34 37 36 36 35 35 35
2 3 4 6 6 3 4 3 7 9 6 5 2 4 3 5 6 11 15 15 15 14 13 19 24 27 29 31 35 34 31 29 30 33 34 33 33 38 42 42 41 40 39 38
5 2 3 3 4 5 3 6 5 3 8 9 7 13 6 14 17 18 16 17 12 14 20 24 26 27 28 29 31 30 32 32 32 35 38 37 36 37 38 42 43 44 44 41
3 2 2 1 5 2 4 10 10 4 3 5 7 9 4 7 14 14 14 9 12 15 21 23 24 27 29 30 30 31 30 28 28 31 34 37 35 36 38 39 43 46 46 45
3 3 2 2 2 0 4 5 1 13 8 11 5 7 11 11 10 10 12 8 13 19 20 22 24 26 28 30 32 33 34 34 33 31 28 31 34 36 38 40 41 44 46 47
5 3 2 3 3 5 2 3 1 4 2 7 6 9 13 12 7 10 7 15 22 20 22 22 24 27 29 30 32 34 36 36 36 34 35 33 29 33 37 38 42 43 43 46
3 5 3 2 3 5 1 1 5 4 1 9 11 8 7 9 2 1 18 27 25 24 25 30 31 32 32 32 32 34 36 38 39 39 40 40 39 37 33 36 37 39 42 44
2 2 4 2 2 7 4 2 4 6 3 5 5 5 7 2 5 17 23 23 24 27 31 30 32 33 31 30 30 32 33 36 38 41 44 44 43 41 39 34 31 35 39 40
6 5 3 1 2 7 11 5 4 6 8 3 10 7 10 11 16 21 23 23 27 30 30 29 27 25 24 28 31 33 35 36 38 40 43 45 46 44 42 41 37 28 32 36
3 6 4 7 6 5 15 3 8 7 1 6 8 7 12 17 22 24 25 27 29 29 27 25 26 29 28 33 37 41 43 45 47 48 49 47 46 45 42 40 38 37 30 33
4 9 2 2 7 17 14 12 10 10 8 9 8 15 18 19 20 22 26 28 27 25 26 29 32 35 37 38 39 41 45 47 49 51 53 53 48 44 41 38 36 34 36 32
4 8 6 5 11 18 18 15 10 8 5 9 12 11 14 19 22 21 21 20 23 27 31 34 37 40 42 44 43 43 44 44 46 47 49 49 47 44 41 38 35 35 35 35
14 7 5 4 4 5 6 7 3 5 9 12 15 20 20 14 13 15 20 24 29 33 37 39 41 43 44 44 44 43 42 43 43 45 45 45 45 43 40 37 37 33 34 34
Wind_Direction
168 197 199 168 150 132 129 127 324 37 14 340 334 310 157 168 181 251 248 198 202 208 213 226 231 221 221 227 223 227 231 244 249 246 241 248 253 262 262 262 262 262 269 277
123 237 195 176 168 136 168 177 222 309 16 3 3 328 310 226 185 200 235 239 231 229 224 224 224 231 237 244 241 237 236 235 243 251 252 254 258 261 263 259 259 261 262 271
152 158 221 242 164 170 219 176 153 302 351 353 334 291 274 265 255 209 229 242 240 237 240 241 248 256 258 251 247 249 253 250 251 258 258 256 254 256 261 262 263 260 263 268
222 321 207 200 184 183 184 213 148 155 154 202 152 270 267 238 220 200 214 230 244 249 256 262 260 259 255 258 249 250 253 256 260 257 258 256 260 261 265 264 263 262 264 265
148 158 211 189 193 179 170 124 165 181 46 7 198 318 255 262 279 186 201 230 253 263 253 236 251 251 252 257 261 263 266 267 266 264 261 262 260 263 264 261 263 266 266 264
64 345 353 36 30 124 116 82 65 65 87 223 215 202 253 217 231 225 170 152 156 304 299 283 290 298 296 281 273 273 271 273 276 271 266 262 261 259 252 247 252 263 264 265
172 104 43 241 91 131 129 135 108 126 169 226 338 216 244 298 330 348 90 97 80 32 340 333 328 317 309 301 297 295 292 297 294 284 274 269 264 257 255 257 258 261 262 266
176 181 176 213 203 180 173 162 152 178 184 182 346 237 261 279 4 44 67 19 358 40 39 16 3 2 0 353 345 339 324 313 308 300 293 279 268 260 253 254 261 262 261 264
180 174 142 148 22 145 177 209 93 91 22 69 204 259 277 234 254 146 85 73 51 98 30 31 32 27 21 11 360 350 338 328 317 307 298 288 275 266 260 258 259 260 260 260
139 120 162 121 159 180 176 132 68 358 135 228 244 233 237 306 155 127 83 72 65 68 57 59 49 28 20 12 359 347 338 329 323 316 308 295 279 269 263 259 259 260 261 261
22 121 158 129 222 170 181 166 192 138 143 172 137 244 338 72 80 88 76 59 42 52 47 33 359 359 349 347 353 337 326 325 320 314 306 296 284 273 265 263 262 262 262 260
356 108 145 159 2 18 218 163 175 133 225 241 125 273 64 83 86 90 68 59 46 31 359 341 343 343 343 341 336 335 319 317 320 313 304 297 286 277 271 268 267 265 264 260
265 60 120 116 315 59 177 220 207 234 93 204 125 243 230 165 127 137 123 61 19 358 345 340 340 341 341 340 334 329 323 319 316 311 304 302 297 288 281 273 268 266 264 260
23 62 65 129 99 116 165 199 216 214 134 192 199 149 193 146 41 4 358 352 347 350 353 344 337 339 331 328 331 331 329 324 318 313 311 299 295 296 287 279 273 271 268 264
67 98 83 79 85 19 76 184 215 216 226 192 128 263 285 359 349 346 28 25 10 16 6 1 0 358 359 357 356 348 328 318 318 313 310 309 305 299 294 285 278 273 269 266
339 108 99 81 119 140 171 238 268 255 240 265 284 280 285 306 47 27 8 3 19 15 4 355 346 342 341 343 343 341 346 337 326 314 306 306 301 297 293 288 282 275 271 266
32 93 45 161 356 44 336 210 198 190 223 205 240 246 31 44 34 7 341 39 33 359 343 334 331 331 332 333 333 328 328 328 332 325 316 310 309 299 289 290 285 280 274 269
53 46 25 137 25 53 251 355 242 197 209 225 237 59 66 50 6 345 83 39 349 341 340 337 335 332 329 326 323 321 322 323 321 320 323 325 317 306 298 289 285 283 279 271
4 59 59 128 201 284 323 53 58 164 128 25 73 53 32 13 348 158 5 347 342 336 334 329 330 329 327 326 323 321 321 321 322 319 315 315 316 315 309 300 292 288 284 277
322 48 103 40 122 211 195 89 355 357 250 74 56 29 354 358 72 287 325 327 331 326 328 330 329 327 325 324 321 319 319 320 321 319 316 314 312 308 305 305 298 294 287 282
71 23 155 204 226 290 244 187 350 93 215 108 48 359 342 337 311 308 319 327 319 319 322 323 322 322 327 328 327 329 328 326 323 319 316 315 313 310 304 298 301 304 295 287
164 150 192 191 108 275 171 133 185 172 148 136 351 345 320 310 308 314 318 311 312 318 319 320 323 331 334 334 333 330 329 325 323 322 322 319 313 308 305 301 295 294 303 296
226 190 185 182 211 235 187 117 176 160 290 341 335 323 312 311 310 311 307 314 314 316 320 325 330 329 330 329 328 325 322 320 319 317 315 313 310 307 303 300 297 288 282 285
242 251 215 105 257 248 247 234 246 271 292 296 298 307 310 307 312 313 315 316 322 325 328 329 329 327 325 323 322 320 318 316 313 311 309 310 309 305 302 297 294 288 281 272
209 159 189 262 280 280 267 256 245 263 269 301 310 320 326 319 316 314 316 320 323 325 327 327 326 324 323 322 322 322 320 317 313 311 309 309 309 308 304 300 295 289 284 277
198 190 180 217 166 150 143 146 186 305 312 319 321 317 321 323 324 322 325 326 326 325 325 323 322 320 321 322 324 323 322 319 318 314 312 312 311 309 307 304 299 290 286 283
Height
1514 1516 1517 1520 1522 1527 1530 1534 1536 1533 1533 1529 1524 1521 1518 1523 1524 1525 1527 1529 1532 1536 1539 1541 1543 1544 1546 1547 1549 1552 1554 1554 1554 1554 1554 1555 1555 1557 1557 1558 1559 1559 1560 1559
1516 1516 1513 1516 1523 1528 1534 1535 1538 1534 1535 1533 1532 1531 1525 1523 1522 1524 1526 1528 1531 1533 1536 1539 1541 1542 1543 1544 1545 1547 1548 1549 1549 1550 1550 1551 1551 1550 1551 1552 1552 1553 1554 1554
1508 1512 1514 1516 1523 1530 1531 1535 1538 1541 1540 1538 1538 1531 1525 1520 1519 1520 1525 1526 1528 1531 1533 1536 1538 1538 1539 1540 1542 1542 1543 1544 1545 1545 1545 1546 1545 1544 1545 1545 1546 1548 1549 1549
1509 1511 1512 1518 1521 1523 1531 1530 1535 1537 1542 1553 1542 1558 1518 1515 1516 1516 1519 1522 1525 1527 1529 1532 1535 1536 1537 1537 1538 1539 1539 1539 1540 1541 1540 1540 1540 1540 1540 1541 1542 1543 1543 1542
1512 1510 1513 1513 1515 1520 1528 1527 1533 1536 1543 1548 1543 1552 1525 1518 1518 1517 1519 1519 1523 1526 1526 1527 1528 1530 1531 1532 1534 1535 1534 1534 1536 1536 1535 1536 1535 1536 1535 1534 1535 1536 1537 1537
1512 1512 1513 1512 1514 1514 1522 1528 1537 1544 1550 1560 1543 1544 1533 1520 1517 1512 1514 1517 1520 1523 1525 1525 1526 1528 1528 1528 1530 1531 1530 1529 1530 1530 1530 1531 1531 1531 1531 1529 1529 1530 1532 1532
1514 1515 1517 1517 1519 1520 1523 1536 1551 1558 1563 1558 1538 1544 1524 1512 1511 1513 1514 1520 1521 1522 1524 1526 1528 1527 1527 1526 1526 1527 1526 1525 1525 1524 1524 1525 1525 1526 1526 1525 1525 1526 1526 1526
1512 1522 1518 1517 1516 1520 1520 1522 1538 1546 1553 1546 1543 1540 1520 1508 1510 1513 1516 1519 1520 1521 1525 1526 1527 1527 1527 1526 1525 1524 1523 1523 1521 1519 1518 1518 1518 1518 1519 1518 1518 1519 1520 1520
1507 1511 1513 1514 1516 1516 1523 1527 1524 1540 1557 1551 1536 1525 1515 1512 1512 1514 1518 1520 1521 1522 1526 1525 1526 1528 1527 1526 1524 1522 1522 1521 1519 1517 1515 1514 1513 1512 1512 1512 1511 1511 1512 1512
1492 1514 1514 1516 1518 1519 1516 1519 1540 1548 1563 1555 1530 1523 1526 1513 1513 1514 1518 1521 1523 1526 1527 1526 1527 1530 1527 1526 1525 1522 1521 1519 1516 1513 1511 1509 1508 1508 1508 1508 1507 1507 1506 1506
1492 1501 1519 1518 1519 1516 1519 1521 1522 1529 1541 1552 1545 1531 1520 1520 1518 1521 1522 1525 1526 1527 1527 1528 1530 1529 1526 1524 1522 1521 1519 1516 1513 1510 1508 1505 1504 1504 1503 1503 1502 1502 1501 1501
1501 1501 1512 1517 1517 1513 1507 1514 1518 1533 1540 1537 1536 1539 1523 1520 1519 1520 1522 1524 1524 1526 1527 1528 1527 1525 1524 1522 1521 1519 1516 1513 1510 1508 1505 1503 1501 1500 1499 1498 1497 1496 1495 1495
1502 1507 1512 1523 1521 1512 1510 1512 1516 1517 1524 1534 1545 1534 1522 1520 1520 1520 1523 1524 1525 1527 1528 1528 1527 1525 1523 1521 1519 1516 1514 1511 1509 1507 1504 1501 1500 1498 1495 1493 1491 1490 1489 1489
1502 1508 1507 1508 1511 1509 1514 1515 1515 1517 1537 1529 1529 1527 1521 1520 1521 1521 1521 1521 1522 1524 1524 1524 1522 1521 1519 1517 1515 1513 1509 1507 1505 1503 1500 1498 1497 1494 1491 1489 1486 1484 1482 1481
1507 1509 1510 1512 1513 1512 1511 1515 1515 1518 1518 1525 1517 1518 1517 1519 1520 1520 1521 1522 1522 1522 1522 1522 1522 1520 1518 1515 1512 1509 1506 1504 1501 1497 1494 1492 1490 1488 1484 1482 1481 1479 1477 1475
1508 1513 1511 1518 1516 1519 1520 1519 1516 1514 1516 1518 1519 1518 1517 1518 1519 1520 1522 1521 1521 1522 1523 1522 1520 1518 1516 1513 1510 1506 1503 1499 1496 1492 1487 1484 1481 1478 1475 1472 1471 1470 1468 1468
1513 1517 1524 1536 1526 1522 1539 1517 1512 1511 1513 1515 1520 1515 1516 1519 1520 1520 1520 1521 1523 1523 1522 1520 1518 1515 1513 1510 1507 1502 1499 1495 1491 1487 1482 1478 1473 1468 1465 1463 1460 1458 1457 1457
1520 1521 1527 1539 1542 1548 1513 1507 1505 1507 1510 1509 1509 1516 1518 1520 1520 1521 1521 1521 1522 1521 1518 1517 1514 1511 1509 1506 1502 1498 1494 1490 1486 1481 1474 1471 1467 1462 1457 1453 1450 1448 1448 1446
1519 1522 1546 1552 1550 1525 1507 1509 1508 1509 1513 1512 1513 1516 1516 1517 1519 1521 1521 1522 1520 1517 1515 1513 1511 1508 1505 1501 1497 1492 1488 1484 1479 1474 1469 1465 1459 1454 1450 1445 1441 1438 1436 1436
1525 1526 1540 1550 1553 1555 1512 1510 1508 1507 1523 1516 1516 1518 1518 1519 1522 1520 1518 1519 1517 1515 1511 1507 1505 1503 1498 1496 1491 1487 1483 1478 1472 1468 1463 1459 1454 1448 1441 1438 1432 1429 1426 1424
1543 1543 1554 1552 1555 1535 1510 1510 1510 1537 1523 1515 1516 1515 1515 1517 1519 1519 1517 1515 1514 1512 1509 1504 1500 1497 1493 1489 1485 1480 1476 1472 1466 1461 1457 1452 1447 1441 1436 1429 1425 1421 1417 1415
1537 1547 1554 1550 1556 1546 1506 1511 1516 1513 1512 1514 1515 1514 1514 1515 1514 1516 1515 1513 1511 1506 1503 1500 1494 1492 1489 1484 1479 1475 1470 1465 1460 1454 1449 1443 1438 1433 1428 1422 1417 1411 1410 1409
1531 1518 1525 1524 1519 1502 1503 1504 1507 1509 1511 1512 1512 1513 1512 1509 1509 1509 1508 1506 1505 1501 1498 1494 1489 1487 1485 1480 1475 1468 1463 1456 1449 1444 1439 1433 1428 1423 1418 1413 1408 1404 1401 1398
1512 1509 1514 1511 1499 1500 1502 1504 1506 1507 1508 1509 1508 1508 1507 1505 1505 1503 1501 1501 1497 1495 1491 1488 1483 1480 1477 1473 1469 1464 1456 1449 1442 1435 1428 1423 1417 1411 1408 1403 1399 1395 1392 1390
1508 1505 1508 1506 1498 1498 1498 1501 1502 1503 1504 1505 1505 1504 1504 1502 1500 1500 1498 1497 1493 1490 1485 1481 1477 1471 1467 1462 1459 1454 1447 1440 1433 1426 1420 1413 1407 1402 1397 1393 1390 1386 1383 1381
1495 1495 1501 1501 1492 1493 1496 1498 1499 1501 1501 1501 1500 1500 1499 1498 1498 1497 1495 1491 1487 1483 1478 1473 1469 1464 1458 1453 1449 1445 1438 1432 1425 1417 1411 1404 1398 1392 1388 1384 1379 1378 1375 1372